TimeEDT,TemperatureF,Dew PointF,Humidity,Sea Level PressureIn,VisibilityMPH,Wind Direction,Wind SpeedMPH,Gust SpeedMPH,PrecipitationIn,Events,Conditions,WindDirDegrees,DateUTC
12:53 AM,62.1,59.0,90,30.08,9.0,NNE,4.6,-,N/A,,Overcast,30,2013-05-18 04:53:00
1:53 AM,59.0,55.9,90,30.06,10.0,West,3.5,-,N/A,,Partly Cloudy,260,2013-05-18 05:53:00
2:53 AM,60.1,57.0,90,30.05,6.0,Calm,Calm,-,N/A,,Clear,0,2013-05-18 06:53:00
3:53 AM,60.1,57.0,90,30.05,7.0,Calm,Calm,-,N/A,,Mostly Cloudy,0,2013-05-18 07:53:00
4:53 AM,60.1,57.0,90,30.06,6.0,Calm,Calm,-,N/A,,Clear,0,2013-05-18 08:53:00
5:53 AM,60.1,57.9,93,30.06,6.0,Calm,Calm,-,N/A,,Scattered Clouds,0,2013-05-18 09:53:00
6:53 AM,61.0,57.9,90,30.07,5.0,Calm,Calm,-,N/A,,Overcast,0,2013-05-18 10:53:00
7:53 AM,63.0,57.9,84,30.08,6.0,NNE,3.5,-,N/A,,Haze,30,2013-05-18 11:53:00
8:53 AM,64.0,57.0,78,30.09,7.0,Calm,Calm,-,N/A,,Overcast,0,2013-05-18 12:53:00
9:53 AM,64.9,57.9,78,30.10,7.0,ENE,4.6,-,0.00,Rain,Light Rain,60,2013-05-18 13:53:00
10:53 AM,66.0,57.9,75,30.09,9.0,ESE,3.5,-,0.00,,Overcast,110,2013-05-18 14:53:00
11:53 AM,69.1,60.1,73,30.09,8.0,South,3.5,-,N/A,,Scattered Clouds,190,2013-05-18 15:53:00
12:53 PM,73.9,62.1,66,30.07,9.0,SE,6.9,-,N/A,,Mostly Cloudy,140,2013-05-18 16:53:00
1:53 PM,75.9,63.0,64,30.05,10.0,ESE,5.8,-,N/A,,Mostly Cloudy,110,2013-05-18 17:53:00
3:53 PM,79.0,63.0,58,30.01,10.0,SE,6.9,-,N/A,,Clear,140,2013-05-18 19:53:00
4:53 PM,79.0,63.0,58,29.99,10.0,ESE,9.2,-,N/A,,Scattered Clouds,110,2013-05-18 20:53:00
5:53 PM,79.0,62.1,56,29.99,10.0,ESE,9.2,-,N/A,,Partly Cloudy,120,2013-05-18 21:53:00
6:53 PM,79.0,62.1,56,29.99,10.0,East,6.9,-,N/A,,Clear,100,2013-05-18 22:53:00
7:53 PM,73.9,64.0,71,30.00,10.0,ESE,9.2,-,N/A,Thunderstorm,Clear,120,2013-05-18 23:53:00
8:25 PM,71.6,59.0,64,30.02,10.0,SSE,11.5,-,N/A,,Scattered Clouds,150,2013-05-19 00:25:00
8:53 PM,70.0,59.0,68,30.01,10.0,ESE,5.8,-,N/A,,Overcast,120,2013-05-19 00:53:00
9:53 PM,66.0,59.0,78,30.02,10.0,Calm,Calm,-,N/A,,Partly Cloudy,0,2013-05-19 01:53:00
10:53 PM,66.0,61.0,84,30.02,10.0,Calm,Calm,-,N/A,,Clear,0,2013-05-19 02:53:00
11:53 PM,64.9,61.0,87,30.01,9.0,SSE,5.8,-,N/A,,Clear,150,2013-05-19 03:53:00